Regional Weather Roundup
Issued by NWS Kansas City/Pleasant Hill, MO

Home | Current Version | Previous Version | Text Only | Print | Product List | Glossary On
Versions: 1 2 3 4 5 6 7 8 9 10 11 12 13 14 15 16 17 18 19 20 21 22 23 24 25 26 27 28 29 30 31 32 33 34 35 36 37 38 39 40 41 42 43 44 45 46 47 48 49 50
000
ASUS43 KEAX 280411
RWREAX

WEATHER ROUNDUP FOR EASTERN KANSAS AND NORTHWEST MISSOURI
NATIONAL WEATHER SERVICE KANSAS CITY/PLEASANT HILL MO
1000 PM CST TUE JAN 27 2015

KSZ040-057-103>105-MOZ028-029-037-043-280500-
...KANSAS CITY METROPOLITAN AREA...

CITY           SKY/WX    TMP DP  RH WIND       PRES   REMARKS
K.C. INTL      CLEAR     42  32  67 SE13      30.07F
K.C. DOWNTOWN  CLEAR     41  30  65 E6        30.08F
LEES SUMMIT    CLEAR     42  31  64 SE9       30.09F
OLATHE - IXD   CLEAR     44  31  60 E10       30.07F
OLATHE - OJC   CLEAR     43  31  62 E9        30.06F
LAWRENCE       CLEAR     40  29  64 E10       30.06F WCI  33

$$

MOZ001>008-011>017-020>025-030>033-038>040-044>046-053-054-280500-
...NORTHERN AND CENTRAL MISSOURI...

CITY           SKY/WX    TMP DP  RH WIND       PRES   REMARKS
ST. JOSEPH     CLEAR     41  31  67 SE10      30.08F WCI  35
MOSBY          CLEAR     41  32  70 E6        30.10F
WARRENSBURG    CLEAR     37  32  81 E8        30.12F WCI  31
WHITEMAN AFB   CLEAR     37  30  75 SE8       30.12S WCI  31
CLINTON        CLEAR     39  32  75 E7        30.12F WCI  34
SEDALIA        CLEAR     38  30  73 E6        30.15F WCI  33
WARSAW         NOT AVBL
MARSHALL       CLEAR     41  34  75 E6        30.16S
CHILLICOTHE      N/A     38  31  76 E6        30.15F WCI  33
MOBERLY        CLEAR     34  28  80 E9        30.18R WCI  26
KIRKSVILLE     CLEAR     30  28  92 SE8       30.18R FOG     WCI  22

$$

MOZ041-047>049-056>058-063>065-088>090-097-280500-
...EASTERN AND SOUTHERN MISSOURI...

CITY           SKY/WX    TMP DP  RH WIND       PRES   REMARKS
ST. LOUIS INTL CLEAR     29  24  82 E6        30.25R WCI  23
SPIRIT OF STL  CLEAR     30  26  85 E5        30.24R WCI  25
COLUMBIA       CLEAR     38  31  76 SE9       30.17R WCI  31
JEFFERSON CITY CLEAR     35  29  78 SE7       30.19R WCI  29
MEXICO         CLEAR    N/A N/A N/A E10       30.18S HAZE
HANNIBAL       CLEAR     30  27  86 E7        30.21S WCI  23
ROLLA          CLEAR     36  29  75 E12       30.15S WCI  28
LEBANON        CLEAR     41  28  60 E6        30.14S
OSAGE BEACH    CLEAR     43  28  56 E5        30.15S
SPRINGFIELD    CLEAR     44  28  53 SE6       30.12R
BRANSON        CLEAR     46  28  49 SE8       30.14S
NEVADA         CLEAR     45  30  57 SE9       30.09F
JOPLIN         CLEAR     50  27  40 SE8       30.07F
WEST PLAINS    CLEAR     43  29  57 SE6       30.17R

$$

IAZ060-094-KSZ022-034>040-054-083-096-NEZ052-066-093-280500-
...KANSAS...SOUTHEAST NEBRASKA AND IOWA...

CITY           SKY/WX    TMP DP  RH WIND       PRES   REMARKS
TOPEKA         CLEAR     46  32  58 E10       30.04F
MANHATTAN      CLEAR     48  35  60 E7        29.98F
EMPORIA        CLEAR     44  33  65 SE9       30.00S
CHANUTE        CLEAR     47  33  58 SE10      30.04S
WICHITA        CLEAR     52  35  52 S9        29.98S
OMAHA          CLEAR     40  30  67 S15       30.03F WCI  32
LINCOLN        CLEAR     43  30  60 SE10      30.00F
FALLS CITY     CLEAR     40  30  67 SE10      30.04S WCI  33
LAMONI         CLEAR     36  29  75 SE7       30.11F WCI  30
DES MOINES     CLEAR     32  27  81 SE10      30.14S WCI  24

$$



USA.gov is the U.S. government's official web portal to all federal, state and local government web resources and services.